RH
100 100 100 99 97 97 97 93 91 90 88 86 84 81 77 72 67 63 58 56 59 54 40 26 15 11 11 10 8 7 6 6 5 5 5 5 8 11 13 15 15 18 21 23 27 32 37 41 41 40 39 37 37 36 41 50 52 45 40 39 29 20 38 67 77 82 93 100 99 95 96 96 93 98
100 100 99 99 97 98 99 96 95 94 92 90 87 82 77 76 74 69 62 54 55 56 44 28 16 12 11 9 8 8 6 6 6 5 6 6 9 13 14 16 17 18 23 27 31 38 42 43 43 43 42 41 41 39 41 49 52 46 47 52 41 22 24 40 55 70 84 96 101 98 102 101 90 89
100 100 99 99 98 98 100 98 97 97 95 92 90 85 80 81 80 75 69 58 54 55 46 28 16 12 11 9 8 8 6 6 6 5 6 7 11 16 16 17 19 20 25 31 36 40 43 45 47 47 46 47 48 45 44 50 53 47 46 52 47 33 27 25 32 52 72 88 98 100 102 99 91 88
99 100 100 99 99 100 98 96 96 95 94 93 93 91 87 87 86 80 75 65 57 55 43 26 16 12 11 9 7 8 6 6 7 6 6 8 12 18 19 18 19 22 27 33 37 40 43 45 48 52 52 52 54 55 52 51 51 48 44 46 46 38 32 25 20 33 55 75 89 99 102 97 94 93
100 100 101 99 99 101 98 94 96 95 95 94 93 95 93 92 90 85 79 70 62 56 39 21 15 13 10 9 8 7 7 6 7 7 6 9 13 19 21 19 20 24 28 33 36 38 41 44 47 53 57 58 58 59 61 58 51 48 45 41 39 35 33 31 21 18 35 56 75 92 99 94 95 97
102 100 100 100 98 101 99 97 97 97 97 97 96 96 96 94 92 88 82 75 66 56 37 18 14 13 10 9 8 7 7 7 7 7 7 8 14 20 22 20 20 24 28 31 35 36 39 43 47 52 58 64 65 63 66 67 59 54 50 43 38 34 30 27 19 15 23 39 60 79 88 90 96 99
99 101 99 100 99 99 100 99 99 99 99 99 99 99 99 96 93 89 85 78 66 53 35 18 13 12 9 8 8 6 7 7 7 7 7 8 14 22 23 20 20 24 28 30 32 35 37 41 48 55 61 67 71 70 67 68 68 66 62 53 43 36 31 22 13 12 17 26 45 64 74 83 94 97
84 100 100 100 101 100 99 99 100 100 100 100 100 100 100 99 94 91 88 78 62 47 33 20 13 11 9 8 8 7 6 8 8 7 7 8 14 21 23 21 20 22 26 28 31 33 36 41 48 55 63 69 75 78 73 68 68 71 72 68 57 43 34 27 13 6 10 17 31 49 62 72 85 90
61 91 101 99 100 101 99 98 99 100 100 100 101 100 99 100 96 92 88 76 57 42 29 19 13 10 9 8 7 7 7 8 8 8 7 8 13 19 22 21 20 21 23 26 30 32 35 42 48 55 65 73 78 82 81 75 70 70 72 74 71 57 41 32 22 9 4 9 19 35 51 60 69 77
45 76 97 100 100 101 100 99 99 100 101 100 101 100 99 100 97 93 88 72 52 37 25 16 12 10 8 8 7 7 7 8 8 8 8 8 13 19 22 20 20 22 22 24 29 33 35 39 46 55 66 76 83 84 83 77 69 69 72 74 75 70 53 37 28 17 6 4 10 21 37 50 56 63
40 60 85 98 101 100 100 100 99 99 100 101 100 100 99 98 96 92 85 67 47 32 20 13 11 9 8 8 7 7 8 8 8 8 8 10 16 22 23 22 21 21 22 25 28 31 32 35 43 57 68 76 82 84 79 70 60 59 66 72 74 75 67 49 33 24 12 4 5 11 23 39 49 54
47 52 72 92 100 102 100 100 99 98 100 101 99 98 98 97 95 91 79 59 39 24 15 11 10 9 8 7 7 8 8 7 8 9 11 15 19 23 23 22 21 20 21 25 26 27 29 33 43 59 71 79 84 84 76 67 62 59 58 63 70 73 73 61 40 28 18 6 4 8 15 29 41 47
58 56 69 84 91 97 101 100 99 99 100 100 98 98 99 98 96 88 69 47 29 17 12 10 9 8 7 7 7 8 7 7 8 10 16 22 25 25 21 18 20 22 23 25 25 26 31 36 46 61 71 78 84 83 74 65 64 68 63 57 60 66 72 69 49 32 23 10 4 7 10 22 34 40
68 64 71 83 89 96 101 100 99 100 100 100 99 99 100 99 95 80 56 34 20 13 10 9 8 8 7 7 8 7 7 7 9 14 21 26 28 27 21 16 18 22 25 27 25 25 37 46 53 64 72 76 79 75 71 65 60 67 72 63 56 57 66 71 55 35 26 14 5 7 8 15 28 37
82 77 78 89 96 99 100 99 99 101 100 99 98 97 99 99 89 65 39 23 14 11 10 9 8 8 7 7 8 7 7 8 10 17 24 27 28 28 23 16 16 21 27 30 27 26 43 60 63 66 70 72 73 69 69 72 67 68 75 68 57 53 59 69 59 37 26 16 6 7 8 9 21 34
90 89 87 91 95 98 99 99 100 100 100 98 96 97 101 96 74 46 25 17 12 10 9 8 8 8 7 8 8 7 8 8 10 16 21 26 28 28 27 21 18 24 29 33 33 31 48 73 72 62 61 63 66 68 70 75 74 74 77 68 56 52 54 65 62 39 25 17 7 7 9 8 15 26
93 96 96 95 95 97 99 100 101 100 99 97 94 98 99 82 52 28 17 13 10 9 9 8 8 8 7 8 8 8 9 8 10 14 18 25 28 27 29 24 21 28 32 40 48 40 51 80 77 55 55 61 62 64 67 73 77 79 80 70 59 54 53 61 62 41 25 18 8 6 12 11 13 19
96 96 96 98 98 99 100 100 100 100 98 95 95 98 89 59 31 18 13 11 9 9 9 8 8 8 8 9 9 9 11 9 11 15 18 23 26 24 24 21 22 30 35 52 70 58 56 83 80 56 58 65 60 55 56 68 81 85 84 78 69 61 54 58 61 42 25 19 9 6 13 15 15 17
98 95 94 99 99 99 100 100 101 100 97 95 98 93 68 36 20 15 11 10 9 9 9 8 9 9 9 10 10 9 11 10 11 16 19 22 25 23 22 21 26 34 43 68 93 77 64 84 83 61 62 69 64 58 57 68 82 87 88 88 86 76 59 57 61 43 24 18 9 6 14 17 16 16
100 97 97 99 99 99 101 101 101 98 94 98 96 76 44 22 16 13 9 10 9 8 9 8 9 10 9 10 11 10 12 13 14 17 19 22 26 26 25 26 27 37 55 84 103 87 71 83 82 64 66 75 75 70 71 78 81 78 74 73 78 80 65 56 59 44 23 16 9 7 14 17 16 15
100 99 99 99 99 100 101 101 100 95 96 100 83 50 25 16 14 10 9 10 9 8 10 10 9 11 10 11 11 11 14 15 16 18 19 22 27 27 28 29 27 36 64 94 105 90 73 76 79 72 71 76 81 83 85 92 93 85 72 58 57 67 63 57 58 44 23 15 9 7 13 16 15 14
100 99 99 99 99 101 101 100 97 97 100 90 59 28 17 14 11 10 10 10 9 10 11 11 11 13 12 13 12 12 14 14 14 16 18 21 25 26 29 32 27 36 69 98 100 82 70 74 85 87 78 72 81 93 96 99 102 98 87 71 63 63 59 57 58 42 22 14 8 7 14 16 15 14
100 99 99 100 100 100 102 99 98 101 95 68 34 18 15 12 10 11 10 9 10 11 12 12 15 16 15 15 14 13 13 13 13 16 17 19 23 25 29 35 36 45 74 99 95 79 77 88 96 98 92 81 80 92 100 102 102 100 96 86 75 67 60 60 57 39 21 14 9 7 13 16 15 13
100 99 100 100 100 101 102 100 101 98 76 43 21 15 13 10 10 11 10 11 12 12 14 15 17 19 18 17 17 15 15 15 16 17 17 18 21 23 27 38 50 62 80 97 97 87 89 99 101 100 103 92 74 73 89 100 103 103 100 90 76 69 67 66 55 34 19 13 9 9 13 15 15 13
99 100 100 100 100 102 101 102 100 82 50 24 16 14 11 10 11 10 10 12 12 12 14 16 17 19 19 19 19 19 19 20 19 18 17 17 18 21 29 43 56 66 78 93 99 96 96 101 101 98 94 82 62 53 66 88 102 104 96 84 72 69 72 69 52 32 20 13 8 9 14 15 13 13
100 100 100 100 101 101 102 102 88 58 29 17 14 12 10 10 11 11 11 11 11 11 13 14 15 16 16 18 21 22 23 23 22 20 18 18 18 18 30 50 62 64 73 87 98 99 97 98 102 95 81 74 71 63 60 75 95 101 93 83 74 71 71 65 46 27 19 14 9 10 15 15 13 13
100 100 100 101 101 101 102 93 67 36 19 16 13 11 11 11 10 11 11 10 10 10 10 11 12 11 12 16 19 22 24 24 23 23 21 19 19 18 28 55 74 76 78 87 94 96 93 95 100 94 77 76 89 87 73 71 83 94 97 90 78 71 67 56 36 23 18 13 9 10 14 14 13 13
100 100 101 100 101 103 97 74 44 24 16 14 12 11 11 11 11 10 10 9 9 9 9 9 9 9 9 13 15 18 21 22 23 26 24 21 21 19 25 52 82 93 92 90 90 90 90 95 100 94 82 82 94 100 94 86 84 89 94 90 76 67 61 46 28 20 17 11 8 11 14 14 12 12
100 100 100 100 102 99 81 50 28 19 15 12 11 12 11 11 11 10 9 9 9 9 10 9 9 9 9 10 12 12 15 19 21 25 26 24 22 20 23 45 78 98 98 91 89 90 95 98 99 98 97 96 95 98 99 94 88 85 84 80 74 64 52 37 23 17 15 10 9 12 13 13 12 11
100 101 100 101 101 86 59 35 22 17 14 12 12 12 11 11 11 10 9 10 10 10 10 10 10 11 10 10 11 11 11 14 17 20 24 24 23 21 20 35 68 97 103 95 91 93 99 101 99 100 101 92 82 85 88 87 90 90 77 65 62 57 43 28 19 14 11 8 10 13 13 13 12 11
99 101 101 101 93 71 43 27 20 14 13 13 12 12 12 11 10 10 10 10 11 11 11 11 11 12 12 12 12 12 11 11 12 15 19 22 23 22 20 25 51 85 102 101 96 95 99 101 100 100 97 86 82 91 94 92 98 98 76 51 44 42 34 23 16 12 9 8 10 13 13 11 11 10
100 101 101 98 82 55 32 21 17 14 13 13 12 12 13 11 11 11 11 11 12 12 12 13 13 13 13 13 13 13 12 12 11 12 14 18 21 23 22 21 34 62 89 102 101 99 100 101 100 100 98 93 94 100 100 97 98 91 66 43 34 30 23 17 13 9 8 9 11 13 12 11 11 11
101 100 101 92 67 39 24 18 16 14 13 13 13 13 13 12 12 12 12 12 13 13 13 14 14 14 14 14 15 15 14 13 13 12 12 14 17 20 22 22 26 44 72 95 101 98 97 99 100 99 100 99 99 100 99 99 100 88 59 34 27 25 17 11 11 10 8 10 11 13 13 10 9 9
101 100 97 80 51 30 22 18 16 15 14 14 15 13 13 13 13 13 14 14 14 15 15 15 15 15 16 16 16 16 16 15 15 14 13 12 14 16 20 23 25 35 59 86 100 99 96 98 100 99 100 100 99 100 100 99 101 98 74 40 23 21 16 8 8 9 8 11 13 11 11 12 10 8
101 100 89 65 40 27 22 18 16 15 15 15 15 14 14 14 14 15 15 15 15 16 16 17 17 16 17 18 17 18 19 18 18 17 16 14 13 13 15 19 24 32 48 73 93 101 99 99 100 100 100 101 99 99 101 99 98 103 94 60 27 17 15 10 10 10 10 15 21 16 9 8 8 7
101 96 79 53 34 26 21 18 16 16 15 16 16 15 15 15 16 16 16 15 17 17 17 18 18 17 18 19 19 19 21 21 22 21 19 18 15 13 13 15 20 28 39 57 82 99 101 99 100 101 100 101 100 98 100 101 97 101 101 71 25 8 12 11 8 13 18 22 24 18 10 8 9 8
101 92 71 47 32 25 20 18 17 16 16 17 16 16 17 17 17 17 17 16 17 18 19 19 19 19 20 20 20 21 22 24 26 25 25 23 20 17 14 12 14 21 29 42 68 93 102 99 99 101 100 101 102 99 98 101 98 99 103 83 43 27 37 33 19 15 19 24 26 16 5 6 7 1
99 86 63 42 31 24 19 18 17 17 17 17 17 17 18 18 18 17 17 18 19 19 21 20 19 20 21 20 22 23 24 26 28 29 30 30 27 24 20 15 12 14 19 28 49 77 98 101 99 101 101 100 101 100 98 101 100 97 102 99 79 69 77 78 68 52 33 28 36 27 12 19 26 18
97 83 60 40 29 22 20 19 17 17 18 18 18 19 19 19 19 18 18 19 21 21 22 21 20 21 22 22 23 24 25 28 30 32 34 35 33 31 28 23 18 14 13 17 29 52 80 96 99 100 101 99 100 101 98 100 102 98 99 102 98 91 86 84 93 95 69 45 46 43 36 53 69 58
97 83 61 42 28 21 20 19 18 18 19 18 19 20 20 19 19 19 19 21 22 23 23 22 21 22 22 22 23 24 27 31 33 35 38 38 38 38 35 31 28 22 15 13 17 29 55 78 89 96 100 99 99 101 99 99 101 100 99 100 99 101 96 78 73 84 78 54 41 36 39 60 76 72
96 81 59 39 28 23 20 19 18 18 19 19 20 21 21 20 20 20 21 22 23 24 24 23 23 23 22 23 24 25 28 33 36 38 41 42 42 44 41 38 37 32 23 17 13 15 29 47 62 80 95 100 100 100 100 100 100 98 101 101 97 99 103 88 66 59 58 48 32 27 44 67 69 64
96 81 59 40 30 25 22 20 19 19 19 20 21 21 21 21 21 21 22 24 24 24 25 25 25 24 23 22 24 26 29 34 37 41 45 46 47 48 48 46 44 40 34 28 21 16 17 22 32 51 74 92 101 100 98 100 101 98 99 101 98 97 100 97 84 63 50 47 37 27 50 85 81 62
98 87 68 48 35 28 23 21 20 20 20 21 21 21 21 21 21 22 23 24 25 24 25 26 26 25 23 23 24 27 29 32 36 40 46 50 53 53 53 52 50 47 43 38 33 27 21 17 18 26 42 69 95 102 99 99 101 101 100 97 96 97 97 99 99 87 73 72 61 34 42 80 87 71
101 95 80 59 41 30 25 22 20 20 21 21 21 21 21 20 21 22 23 24 25 25 25 26 26 25 24 23 24 27 29 30 33 39 46 53 58 59 59 58 56 54 52 47 43 39 31 23 20 17 19 43 76 94 99 101 99 99 102 100 96 98 99 98 101 99 95 96 82 51 51 85 95 79
101 100 90 70 49 34 27 24 22 21 21 21 21 21 20 20 21 22 22 24 25 25 25 26 26 25 24 24 25 27 29 29 32 37 45 53 60 63 64 64 62 61 59 54 51 47 40 33 29 21 15 24 45 61 79 98 102 98 100 101 99 100 101 99 100 100 99 102 94 71 66 90 102 92
Wind_Speed
51 50 48 47 46 46 45 46 44 43 43 43 42 41 40 41 42 43 42 41 40 38 35 34 33 34 36 39 40 41 42 43 46 48 49 50 50 48 45 43 42 43 44 44 43 43 45 47 49 51 51 50 49 46 45 47 49 49 47 48 52 58 65 66 62 66 70 63 60 65 67 63 60 65
52 51 50 47 46 46 46 46 45 44 44 43 43 42 41 42 42 43 44 43 41 39 37 35 34 35 36 39 40 40 41 41 44 47 48 49 49 48 46 44 43 44 44 43 42 43 45 47 48 49 49 49 50 47 45 46 48 49 47 47 50 55 62 68 67 67 70 66 61 64 65 59 59 67
53 51 50 49 48 47 46 46 46 45 45 44 44 43 43 43 43 44 44 45 43 40 38 37 36 36 37 39 39 40 40 40 42 46 48 48 48 48 47 44 44 44 44 43 42 43 44 46 47 48 47 48 50 49 45 44 47 49 48 47 49 51 56 64 69 69 70 69 63 63 65 60 60 69
53 52 51 50 49 47 46 45 46 46 45 45 45 45 44 44 44 44 44 45 43 41 40 39 37 37 38 40 39 39 40 39 41 45 48 48 48 48 46 44 44 45 44 43 42 43 44 46 47 48 48 47 48 48 46 45 47 48 48 48 49 51 54 59 67 71 73 73 66 63 65 62 62 70
51 53 52 51 50 48 46 45 45 45 45 45 46 46 45 44 44 44 44 45 44 42 40 39 38 37 39 41 40 39 39 38 39 44 47 48 48 48 45 44 44 45 45 43 43 43 44 46 48 49 50 49 49 48 46 45 46 47 47 48 49 52 53 56 64 70 74 78 73 65 64 63 63 70
48 52 54 53 51 48 46 45 45 44 44 44 45 46 45 45 45 44 44 44 44 43 41 40 38 37 39 41 40 39 39 38 39 43 46 47 48 47 46 45 44 45 45 44 43 44 45 46 48 49 50 51 51 49 47 46 47 46 46 47 49 52 53 55 61 68 72 80 80 71 67 64 64 70
45 49 53 54 53 49 47 45 44 43 42 43 44 44 44 45 44 43 43 44 44 44 42 40 39 38 39 41 40 39 38 39 39 42 44 46 47 46 46 45 45 45 45 43 42 43 45 46 47 49 51 52 52 51 48 47 47 46 46 46 48 51 54 55 60 66 71 79 84 79 73 68 65 70
45 46 50 53 53 51 48 47 45 43 41 41 42 43 43 44 43 43 42 43 43 43 43 41 39 39 40 41 40 39 38 39 40 42 43 45 45 45 45 46 46 45 45 43 42 43 45 46 47 49 50 51 52 51 49 47 46 47 47 47 47 49 52 55 58 63 69 76 85 85 81 75 70 72
45 45 47 49 51 51 50 49 46 43 40 40 41 42 42 42 42 42 41 42 42 42 42 41 40 40 41 41 40 39 38 40 41 42 43 44 44 44 43 45 46 45 45 43 41 43 44 46 48 48 49 50 51 50 50 49 48 47 47 48 48 48 50 54 56 60 66 73 83 89 87 83 78 76
45 45 46 47 49 51 51 49 46 43 40 40 40 41 41 41 41 41 41 41 41 41 41 41 41 41 41 41 40 39 39 40 41 43 43 42 42 42 42 44 45 45 45 43 41 43 44 46 48 48 49 49 50 50 50 50 49 49 48 48 48 48 49 52 54 57 62 68 78 89 92 89 83 80
43 44 44 45 46 48 50 49 46 43 41 40 40 40 40 40 39 40 40 40 39 39 39 40 40 41 41 41 41 40 39 40 41 42 44 43 40 40 41 43 44 45 44 43 42 43 45 46 47 49 49 49 49 49 49 49 48 47 47 47 48 49 48 51 54 55 57 63 73 84 91 90 86 82
40 41 43 43 44 45 47 47 46 44 42 40 39 39 38 38 38 39 39 38 37 38 38 39 39 40 40 40 40 40 39 40 39 38 41 43 40 39 40 42 43 45 44 42 43 45 46 47 49 50 50 48 47 48 49 49 48 46 45 44 46 48 49 49 53 55 55 59 67 76 83 87 86 82
39 40 40 40 41 43 45 46 45 44 42 39 37 37 37 37 37 37 37 36 36 37 38 38 38 39 39 38 38 39 39 39 38 36 38 41 40 39 41 41 42 43 43 42 43 45 46 48 51 50 48 47 47 48 49 50 49 48 47 45 44 46 48 49 51 54 54 56 63 69 74 81 83 80
37 38 38 38 39 41 42 43 44 43 39 37 36 36 35 36 36 36 35 34 35 36 37 37 37 38 38 37 37 38 37 37 37 36 37 39 39 39 40 41 41 41 41 42 44 44 46 49 51 50 47 48 49 49 50 50 49 50 50 49 46 44 46 48 50 53 53 55 59 63 68 75 78 77
34 35 35 36 37 39 40 41 42 40 37 35 35 34 34 34 34 34 33 33 34 35 35 35 36 37 38 37 36 36 36 36 36 36 37 38 38 37 38 39 39 39 40 42 44 45 46 49 50 49 47 50 52 52 51 49 49 49 49 49 48 45 44 46 49 52 53 54 57 58 63 71 74 73
30 31 32 34 35 37 38 39 39 37 34 33 33 32 33 33 32 32 32 32 33 34 34 35 35 36 37 37 35 35 36 36 36 36 37 39 39 37 37 38 39 38 40 42 44 47 47 47 49 50 50 52 53 50 48 46 45 46 46 47 47 45 44 44 47 51 52 53 55 56 59 66 71 71
27 28 30 32 34 35 37 38 36 34 33 32 31 31 31 30 29 30 30 31 32 33 34 35 34 34 36 37 35 34 36 37 37 37 37 38 38 37 36 38 38 38 40 42 46 50 48 46 50 52 51 51 48 45 43 43 43 43 44 45 46 45 44 44 45 50 52 52 53 56 58 63 68 68
25 25 27 30 33 35 35 35 33 32 31 30 29 29 29 27 27 28 28 28 29 31 33 34 34 33 34 36 35 33 34 36 36 37 36 36 37 36 35 36 38 38 40 42 47 51 49 48 52 54 51 47 43 40 41 42 42 43 44 44 45 45 44 44 45 48 52 51 52 56 58 61 64 64
23 23 26 30 33 34 33 32 31 30 29 28 28 27 26 25 25 26 26 27 27 29 30 31 32 32 32 33 34 33 34 36 37 38 39 39 39 38 36 37 39 39 39 41 45 49 51 51 53 53 48 44 41 40 40 40 40 42 43 45 46 46 44 43 44 48 51 50 51 55 58 59 61 61
21 23 26 29 31 30 30 30 30 28 27 26 26 24 23 24 24 23 24 25 26 27 28 29 30 31 31 31 32 34 35 37 39 40 40 39 40 41 40 40 39 38 38 39 41 48 52 53 53 52 47 43 42 40 38 37 39 40 43 46 48 48 45 43 44 47 50 50 50 54 57 57 59 58
20 23 25 27 28 28 28 29 28 26 25 25 23 22 22 22 21 21 22 23 24 25 26 28 28 29 30 30 31 33 34 35 37 39 38 38 39 40 40 40 38 37 36 35 38 47 52 51 51 51 47 45 44 41 36 35 39 42 43 45 47 47 45 43 43 47 49 49 50 53 55 55 56 56
20 22 23 25 26 27 28 27 25 24 24 22 21 21 21 20 19 19 20 20 22 23 24 26 27 27 28 29 29 31 32 33 35 37 37 38 38 39 39 38 38 37 34 33 38 47 50 48 48 48 48 48 44 39 37 35 37 41 42 40 42 44 43 41 42 46 48 49 49 52 54 54 54 54
19 20 21 23 25 26 26 24 23 23 22 20 20 19 18 18 17 17 18 18 20 22 22 24 25 25 26 27 28 30 31 32 34 35 37 37 38 38 37 36 38 37 33 34 39 46 47 45 43 43 46 48 42 35 35 34 32 36 37 36 36 38 39 39 41 45 48 48 49 52 54 53 53 53
17 18 19 22 25 25 23 22 22 21 19 18 18 17 16 16 15 15 16 17 18 20 20 22 22 22 24 25 26 28 29 30 32 34 35 36 36 37 36 35 37 37 34 35 40 44 44 40 38 37 39 44 43 36 32 30 28 31 33 32 32 34 35 36 38 44 46 47 49 51 53 53 52 52
15 16 19 22 23 22 21 20 20 19 18 17 16 15 14 13 13 14 15 16 17 18 19 20 21 21 22 24 25 26 27 29 30 32 34 34 34 35 36 36 37 36 34 36 41 44 41 37 35 34 33 36 40 35 27 21 20 27 31 29 28 29 31 33 36 42 45 46 49 52 53 53 51 49
14 17 19 21 21 20 20 19 19 18 16 15 14 13 13 11 11 13 14 15 16 17 18 19 20 20 21 22 23 24 25 27 28 30 32 34 34 35 37 38 39 38 36 37 41 43 40 36 33 32 31 31 32 29 23 17 16 24 27 24 23 25 28 31 36 41 44 45 49 52 51 51 50 48
15 18 19 20 20 19 19 18 17 16 15 14 13 12 10 10 10 12 13 13 15 16 17 18 19 20 21 21 21 23 24 25 26 28 30 32 33 35 37 38 41 41 39 39 41 41 39 36 31 27 27 27 26 25 23 17 15 20 21 19 21 22 25 29 34 39 43 44 48 51 51 50 50 48
17 19 19 19 19 19 19 17 16 15 13 12 11 10 9 9 10 11 11 12 14 15 16 17 18 19 20 21 22 23 24 25 26 27 28 30 32 33 35 36 39 42 41 40 40 40 38 35 30 25 25 27 27 27 24 19 14 14 15 16 19 20 22 28 33 37 41 44 48 50 50 49 48 47
17 18 19 20 20 19 17 16 15 14 12 11 10 9 8 8 9 10 11 12 12 14 15 16 18 19 20 22 23 24 26 27 27 27 27 28 30 31 32 33 35 38 41 40 40 39 37 35 30 26 27 28 28 26 22 19 15 12 13 15 17 19 21 25 32 37 40 44 47 49 49 47 46 46
17 18 19 20 19 17 17 16 14 13 11 10 9 8 7 7 8 9 10 11 12 13 14 15 17 18 19 22 24 25 27 28 28 28 27 27 28 29 30 30 30 32 36 38 40 39 35 32 29 25 24 25 24 21 18 15 13 11 12 13 13 16 18 22 29 36 39 44 47 47 47 46 46 45
17 18 19 19 17 17 16 15 13 11 10 9 8 7 6 7 8 8 9 10 11 13 14 15 16 18 19 21 23 25 27 27 28 29 29 28 29 30 30 30 29 28 29 32 37 38 34 29 25 22 20 21 21 20 18 14 13 14 13 9 8 11 15 21 28 33 38 43 45 46 46 46 44 42
16 18 18 17 17 17 15 13 12 11 10 8 7 6 6 7 8 8 8 10 11 12 13 14 16 18 19 21 22 24 26 27 27 28 29 29 29 30 31 32 31 29 27 27 31 35 34 28 23 20 20 22 22 22 19 13 11 12 8 4 5 6 12 20 26 31 36 41 44 44 44 44 42 39
16 18 18 17 17 16 14 12 11 11 9 8 6 6 6 7 7 7 8 9 11 12 13 15 16 17 18 20 21 22 24 26 27 27 28 29 29 28 29 30 32 32 30 29 30 33 33 30 24 19 20 23 23 23 21 12 6 6 3 5 8 7 11 18 24 29 34 38 42 42 41 40 38 36
18 18 17 17 16 14 13 12 11 10 9 7 6 6 7 7 7 7 8 9 11 12 13 15 16 18 18 20 21 22 23 24 25 26 27 28 29 29 28 28 29 31 31 30 29 30 32 32 27 19 17 21 21 21 20 13 5 4 6 8 10 8 10 16 22 28 32 35 38 38 37 36 35 35
18 17 16 16 15 13 13 12 11 10 8 7 7 7 6 6 6 7 8 9 11 12 13 15 17 18 20 20 21 22 23 24 24 25 26 26 27 28 29 28 29 30 30 29 29 27 27 28 27 21 18 20 20 18 16 10 3 3 8 10 10 11 12 15 20 25 28 31 32 32 32 33 32 32
17 16 16 15 14 13 13 12 11 10 8 7 7 7 6 6 6 7 8 9 11 12 13 15 17 18 20 21 22 23 24 24 24 24 25 25 25 26 27 27 27 28 29 28 28 26 23 22 22 20 18 18 18 14 11 6 1 3 7 12 12 14 15 15 19 22 23 24 26 27 29 30 29 29
16 16 15 15 14 14 14 12 10 9 8 7 7 7 6 6 6 7 8 9 11 12 13 15 16 17 19 21 22 24 24 25 25 25 25 25 25 25 25 25 25 26 27 27 26 25 22 19 17 15 14 14 13 10 10 9 2 6 7 12 14 15 15 13 14 17 19 20 22 24 26 26 26 27
15 14 14 14 14 14 13 11 10 9 8 8 8 7 6 6 6 7 8 9 11 12 13 14 16 17 19 20 21 22 23 24 25 26 25 25 25 25 24 25 25 25 25 25 24 23 21 18 15 12 11 10 8 6 7 8 5 5 9 12 13 13 15 15 13 12 16 20 22 23 23 22 21 23
14 14 14 14 15 14 12 11 11 10 9 9 8 7 6 6 6 7 8 9 11 12 13 14 16 17 18 20 21 22 23 24 24 25 26 26 26 26 26 25 25 25 24 24 23 21 20 18 15 14 13 12 10 9 7 7 6 6 8 10 9 7 8 13 17 15 15 20 23 22 21 19 19 20
11 13 14 15 15 15 13 12 11 10 10 9 8 7 7 7 7 7 8 10 11 12 14 15 16 17 18 19 21 22 23 24 24 25 26 26 26 27 27 26 26 26 25 24 23 22 21 21 20 19 18 18 18 16 13 10 9 8 4 6 8 5 3 6 12 14 13 15 19 20 18 17 18 21
11 12 13 14 14 14 13 13 12 11 10 9 8 8 8 7 7 7 8 10 11 13 14 15 16 17 18 19 20 21 22 23 24 24 25 26 26 26 26 26 26 26 25 24 25 25 24 25 24 23 22 21 19 16 11 7 6 6 5 6 7 6 4 4 7 10 10 10 13 16 16 14 15 21
14 14 14 14 14 14 13 13 12 12 11 10 9 9 8 8 7 8 9 10 12 13 15 15 16 17 18 19 19 20 21 22 23 23 24 24 25 25 25 25 25 26 26 26 26 26 26 25 24 23 21 19 16 13 8 5 5 6 7 8 7 4 4 6 7 8 9 8 9 14 17 15 15 20
15 15 15 15 15 15 14 13 13 12 11 10 10 9 9 9 8 8 9 11 12 14 15 16 17 18 18 19 19 20 20 21 22 23 24 24 24 24 25 25 25 26 26 26 26 26 26 24 21 20 19 17 15 13 11 9 6 6 5 5 6 4 3 6 8 9 10 10 9 12 16 16 14 17
15 15 15 16 16 16 16 15 14 14 12 11 11 10 10 10 9 10 10 11 13 14 16 17 18 18 19 20 20 20 20 20 21 22 23 24 24 25 25 25 25 25 24 24 24 24 24 23 22 21 19 16 14 13 12 10 6 3 3 3 6 6 4 6 9 10 10 11 11 12 16 16 14 15
15 14 14 15 16 17 17 16 15 14 13 12 12 12 12 11 11 11 12 13 14 15 17 18 19 19 20 21 21 21 20 20 21 22 22 23 24 25 25 25 25 24 24 23 22 22 22 22 22 21 20 18 15 14 12 10 7 4 2 3 5 6 7 8 11 13 13 13 13 15 17 18 18 17
Wind_Direction
254 256 258 259 260 260 261 262 263 265 266 267 269 272 275 279 281 282 282 283 283 284 285 285 285 288 290 291 292 293 293 292 291 292 291 290 288 285 280 277 276 277 279 282 284 287 290 290 290 289 286 285 285 284 279 271 270 271 269 263 255 246 242 243 241 237 237 235 234 234 234 236 233 225
251 253 256 258 259 260 261 262 263 264 265 267 269 271 273 277 279 281 282 283 283 284 286 287 287 289 291 292 293 294 293 291 290 290 290 288 285 281 276 274 274 276 278 282 284 287 290 291 292 291 287 284 284 284 280 271 268 269 268 265 258 251 246 244 241 238 237 236 236 235 233 234 230 223
251 252 255 257 258 259 261 262 263 264 265 266 267 269 271 275 277 278 280 282 284 286 287 288 288 291 292 293 294 295 294 292 290 289 288 285 282 278 273 271 273 276 279 282 284 287 290 292 294 294 289 283 280 280 278 272 267 267 267 265 261 255 249 245 241 238 237 236 236 235 231 231 229 223
251 250 253 255 257 259 261 263 264 265 265 266 266 267 270 273 276 277 278 281 283 285 287 287 289 291 293 293 294 295 294 292 291 289 287 284 280 275 272 270 272 275 278 281 284 287 289 292 294 295 291 284 278 276 276 273 268 267 267 265 261 256 251 247 241 237 236 235 236 235 231 230 228 223
254 250 250 253 256 258 260 262 264 265 266 267 267 268 270 273 275 276 278 280 282 284 285 286 289 292 293 294 295 296 295 293 290 288 287 283 279 275 271 269 271 275 278 281 285 287 288 290 292 294 293 288 281 276 273 273 271 269 268 264 261 257 253 250 242 237 235 234 235 235 231 230 228 224
257 252 250 251 253 255 257 260 262 264 266 268 268 269 271 272 274 275 278 280 281 283 285 286 289 293 294 294 296 297 297 294 290 287 285 282 278 274 271 269 271 274 278 281 285 287 287 289 290 291 293 290 286 280 274 272 272 272 271 266 262 258 253 251 244 238 235 234 234 234 231 230 229 226
256 253 250 251 252 253 255 257 261 264 266 268 270 271 271 272 274 275 277 278 280 282 284 287 291 293 294 295 297 299 298 295 291 287 284 280 276 274 270 268 270 273 277 280 284 287 287 288 289 289 290 290 288 284 279 274 272 271 272 269 266 261 255 252 246 239 236 233 232 233 231 231 231 229
254 253 252 251 252 252 254 256 259 262 265 268 271 272 272 272 273 275 276 277 279 282 285 289 293 294 296 297 299 301 300 296 293 289 285 280 276 273 269 268 270 273 277 281 284 287 288 288 288 288 290 290 288 286 282 279 275 270 270 269 267 264 258 254 249 242 237 233 231 231 232 232 232 230
253 253 253 252 251 251 252 255 258 260 264 267 270 272 272 273 274 274 275 277 279 282 285 289 293 295 296 298 301 303 301 297 294 290 286 281 277 274 269 267 270 273 277 282 285 287 287 287 287 288 290 290 287 284 282 282 280 275 270 268 266 264 260 256 252 245 240 234 231 231 231 232 232 230
252 252 253 253 252 252 252 254 256 258 261 265 268 272 273 273 274 274 274 276 278 282 286 291 294 295 298 301 303 304 302 298 294 291 287 283 280 277 272 268 271 274 278 282 286 288 287 287 289 290 291 289 284 282 282 282 282 279 274 269 265 263 261 257 254 249 243 237 233 231 231 231 232 231
252 251 251 253 253 253 252 253 254 256 258 262 266 270 272 272 272 272 273 275 279 283 287 290 294 297 300 303 304 305 302 297 295 292 289 285 282 279 274 271 271 274 278 283 287 289 289 290 292 293 291 289 284 282 282 282 283 282 277 271 266 262 260 257 253 250 245 239 235 233 232 231 232 233
252 251 250 251 252 253 252 252 254 255 257 261 265 269 271 271 270 271 272 276 280 284 288 291 295 299 301 304 304 303 300 297 295 293 289 287 286 281 276 272 273 275 280 285 289 291 293 293 293 293 290 287 284 282 280 279 280 281 278 273 268 262 258 256 253 250 245 240 237 235 233 231 232 234
252 251 250 250 251 253 253 253 254 255 256 259 264 268 269 269 269 270 273 278 282 286 289 293 297 299 301 304 303 301 300 298 296 293 289 289 288 283 276 272 275 280 285 290 292 292 294 294 294 292 289 287 284 282 280 276 273 276 277 274 270 263 257 254 251 249 245 240 237 235 233 230 231 234
254 253 251 250 251 253 254 253 253 254 255 259 263 266 267 266 268 270 274 280 284 287 291 294 297 300 302 304 303 301 301 299 296 295 293 292 291 286 278 272 275 285 292 294 294 294 296 296 294 293 291 289 287 285 284 279 273 272 272 271 269 265 258 252 249 247 243 238 236 234 231 229 229 231
256 255 253 251 250 252 254 254 253 253 254 258 262 264 265 265 267 272 277 280 283 287 292 296 299 302 303 304 304 304 303 300 298 298 298 298 296 293 286 278 278 289 298 299 299 298 298 297 295 294 292 289 289 289 288 283 276 270 267 267 267 264 259 252 246 244 241 237 234 231 228 228 228 228
255 255 252 251 250 250 252 252 252 252 253 257 261 262 262 264 268 273 277 281 286 291 296 299 303 305 304 304 306 306 304 302 302 302 303 304 303 301 298 290 287 296 305 306 303 301 300 299 297 295 293 292 292 293 289 282 274 266 261 262 264 262 258 251 245 242 239 235 232 227 223 224 226 226
253 252 251 251 251 250 250 250 250 250 252 256 259 260 261 264 270 275 279 285 291 296 300 302 305 306 305 306 309 310 308 307 307 307 306 305 305 303 299 295 295 304 313 312 306 304 304 302 297 295 297 296 294 293 288 281 274 264 258 259 262 261 257 250 243 239 236 233 229 223 219 220 224 226
250 250 249 249 251 249 249 249 248 248 251 254 256 257 260 266 271 276 283 288 293 297 301 303 305 307 308 310 312 312 310 309 309 308 308 308 308 306 300 299 305 314 317 312 306 305 305 300 296 297 300 297 293 291 288 282 275 265 258 258 261 261 257 249 241 236 233 231 226 220 216 216 221 224
249 248 248 250 252 249 247 247 246 246 250 252 253 255 260 266 271 276 283 288 293 297 300 303 305 307 309 310 312 314 314 314 314 314 316 317 315 312 307 307 313 317 314 309 306 304 302 299 298 301 302 297 290 290 289 283 277 270 261 258 259 259 256 248 239 234 231 227 222 217 214 214 217 221
246 246 248 252 252 248 244 244 244 246 248 249 251 255 259 265 270 277 284 289 294 298 300 303 305 306 310 314 318 320 319 318 317 316 317 317 314 312 310 311 315 316 312 311 309 302 300 301 304 305 304 297 289 289 290 284 277 273 267 262 259 257 253 246 237 231 228 224 219 214 212 212 214 218
242 244 248 251 250 244 241 242 243 244 245 245 249 254 258 265 272 279 285 290 295 299 301 303 306 310 315 319 321 320 317 314 313 313 314 314 312 312 313 313 316 316 314 315 311 304 303 307 309 307 305 299 291 288 289 283 276 275 273 266 259 253 248 242 234 228 225 221 216 212 210 210 212 215
238 243 248 248 244 240 239 241 241 241 241 243 247 252 258 266 273 279 286 292 296 299 301 304 310 315 318 320 319 316 312 311 311 312 314 314 314 315 316 316 316 316 318 321 315 308 309 312 313 310 306 303 298 290 287 284 277 275 275 268 257 247 241 236 230 225 221 217 213 209 208 208 210 213
235 241 245 244 241 239 239 238 237 238 239 241 246 252 258 266 273 280 289 294 296 300 303 308 313 314 315 316 316 313 311 312 314 315 316 317 317 317 319 319 317 317 323 328 321 315 315 316 315 312 307 307 308 299 290 287 277 273 274 266 252 241 236 232 226 221 218 213 210 207 205 206 208 211
235 241 242 241 241 239 236 234 233 236 238 240 246 253 258 266 274 283 291 294 296 301 305 307 308 310 312 314 313 313 315 315 317 317 318 319 320 320 321 320 318 320 328 333 326 319 317 317 316 315 311 312 315 308 298 292 279 269 269 262 247 237 233 229 222 218 215 210 207 204 203 204 207 209
234 238 238 239 239 235 231 229 230 234 237 239 246 254 259 267 278 286 291 294 297 302 304 304 308 312 314 314 313 315 318 317 318 320 320 322 324 324 324 322 320 323 330 334 329 322 320 322 321 319 319 320 321 316 308 301 280 265 264 257 243 235 232 226 218 215 212 208 204 202 201 203 205 207
232 234 235 236 235 229 225 226 229 232 235 239 246 252 259 270 280 285 291 296 300 303 305 308 314 316 315 315 316 319 320 320 321 323 323 326 328 328 328 326 325 327 331 334 331 326 325 328 327 323 325 329 331 330 323 308 277 264 263 254 238 233 229 222 215 212 210 205 202 200 199 201 204 205
229 231 234 235 230 223 222 225 227 230 233 239 246 252 261 273 280 285 293 299 302 307 311 315 319 319 319 321 322 321 322 323 325 327 328 330 331 331 331 330 328 329 331 332 333 330 329 333 333 327 325 326 330 335 334 323 290 270 264 249 234 231 226 220 214 210 207 203 198 197 198 199 202 204
226 228 231 229 222 218 220 223 224 228 233 238 244 252 261 272 282 290 298 303 307 313 318 321 324 324 326 328 327 326 327 329 331 333 332 332 332 332 334 333 330 329 329 331 335 335 334 337 337 328 321 317 316 320 325 327 313 284 260 244 235 230 224 219 213 208 204 200 196 196 197 198 200 202
226 227 224 220 216 215 216 220 221 225 232 236 242 251 261 273 286 294 301 307 313 318 322 325 329 331 332 333 333 334 335 334 335 336 334 333 333 333 334 335 332 329 328 332 339 339 337 340 343 334 323 321 321 319 316 316 314 290 260 248 240 231 225 218 211 206 202 198 194 194 195 196 199 202
225 224 218 213 212 212 213 216 218 222 228 234 240 249 261 276 288 295 304 312 316 321 325 329 331 334 336 337 338 339 339 337 336 336 336 336 335 334 336 338 336 333 330 333 340 342 340 342 348 345 335 330 330 328 323 320 319 301 278 264 246 231 223 215 208 204 199 194 191 191 193 196 200 203
222 218 214 210 208 210 211 213 215 220 226 230 238 249 263 278 288 295 306 313 317 323 327 328 332 337 340 341 341 340 339 339 339 337 338 339 338 338 339 339 340 339 337 336 339 342 343 346 351 351 341 329 324 324 320 312 309 304 290 267 237 220 213 207 204 201 195 191 190 190 193 197 200 202
219 212 207 206 207 209 209 210 212 218 223 226 234 249 262 274 286 297 307 312 317 322 324 327 335 341 342 341 341 340 339 340 340 340 340 341 342 342 340 339 340 342 344 344 342 342 344 350 355 351 336 324 326 336 335 316 305 309 296 215 167 182 199 199 197 195 192 190 189 190 194 198 200 201
212 206 202 203 207 207 205 208 213 217 220 223 232 247 261 272 284 297 306 312 316 320 325 332 338 342 342 340 340 340 339 339 340 340 342 343 344 345 343 340 341 343 346 350 348 345 347 354 358 354 338 326 332 348 352 341 331 346 9 130 130 144 183 191 190 189 189 189 188 191 196 199 199 199
203 201 200 202 205 203 203 208 213 215 218 222 231 246 259 271 286 299 306 313 318 322 331 338 339 340 342 341 341 341 340 340 340 341 344 345 345 346 346 343 343 344 347 352 352 348 349 353 356 355 343 330 331 344 351 348 346 15 50 95 114 131 165 180 183 184 186 188 191 194 197 198 198 199
200 199 199 201 201 201 204 209 212 214 216 222 233 247 259 272 289 302 308 314 321 328 337 341 339 340 342 342 342 342 342 342 343 343 344 346 347 348 349 347 346 346 348 353 355 352 351 352 353 352 346 336 329 333 342 348 352 32 47 73 104 126 146 164 175 180 184 188 192 195 197 197 197 199
197 196 198 199 199 200 206 210 211 212 217 223 235 248 261 274 289 302 309 316 324 335 342 342 340 341 342 342 342 344 343 343 345 345 345 347 348 350 352 352 350 349 350 354 356 355 354 354 350 346 342 335 328 328 340 351 168 131 60 63 93 122 136 153 170 178 183 188 191 192 194 196 196 196
197 197 197 198 199 203 208 210 210 213 218 226 237 248 261 275 289 302 311 318 329 339 343 340 338 341 343 342 342 344 344 344 345 346 347 348 349 351 354 355 355 354 354 356 357 355 357 359 354 349 342 332 328 342 6 15 53 149 104 71 81 110 128 142 163 176 180 183 187 190 192 194 195 194
196 197 198 200 204 208 208 208 211 216 221 228 238 248 260 275 288 302 313 322 332 339 340 338 339 341 342 342 342 343 344 344 344 345 347 348 349 351 354 357 0 0 359 0 359 357 359 2 3 7 10 0 352 3 14 12 24 120 119 88 78 99 124 136 147 166 177 178 181 187 190 189 190 191
196 198 200 202 205 208 207 208 214 219 224 232 240 248 261 274 288 304 316 325 333 338 338 337 340 343 342 341 341 341 343 345 344 345 347 348 350 352 354 356 0 2 2 3 2 360 0 5 12 20 28 33 38 45 44 33 35 71 111 116 103 94 121 145 153 163 177 181 181 183 183 180 184 189
201 205 208 207 207 207 208 212 217 222 227 234 243 251 261 275 291 305 319 328 332 336 338 338 341 343 342 341 340 340 342 344 345 346 347 348 350 352 353 355 358 1 2 3 4 4 4 7 13 18 22 27 30 30 29 28 26 30 69 138 151 139 119 155 165 172 184 192 191 189 184 178 180 185
205 208 212 213 213 212 212 215 220 226 230 236 245 254 262 277 293 305 319 329 331 333 336 338 340 342 342 340 340 340 340 342 344 345 346 347 348 350 352 355 357 358 359 1 5 9 9 9 10 11 13 17 17 10 2 2 16 35 70 121 145 147 134 134 160 178 191 199 197 189 180 175 180 181
207 207 208 212 215 216 217 219 223 229 233 237 246 256 265 277 293 306 318 326 329 330 334 337 339 341 340 338 338 339 340 341 343 344 344 346 347 349 351 353 356 358 359 0 4 7 9 9 8 7 6 5 4 360 358 12 31 46 72 95 105 111 128 137 145 157 162 166 179 178 168 167 181 184
212 212 211 211 213 214 217 221 226 231 236 240 248 260 269 278 292 306 315 321 326 328 330 334 337 337 337 336 336 337 339 340 342 343 342 343 345 347 349 353 356 358 359 360 0 2 3 2 3 6 4 357 354 357 8 20 26 25 46 93 114 112 118 145 154 150 136 131 149 172 172 171 180 184
219 220 217 215 215 215 218 222 227 232 238 243 251 262 272 280 290 301 308 316 322 325 327 331 334 334 334 334 334 336 338 340 341 341 341 341 343 345 348 351 353 355 357 359 358 357 356 356 359 2 360 354 352 357 2 8 17 18 26 90 135 150 146 145 159 169 161 142 134 148 164 174 182 183
223 224 222 220 220 220 221 224 228 233 240 246 253 262 271 279 287 296 304 310 317 321 324 327 330 331 331 332 332 334 337 338 339 340 340 340 341 342 344 347 348 349 352 355 356 354 353 354 355 354 353 354 355 354 351 356 8 17 18 66 121 152 164 157 154 159 165 164 152 146 156 172 183 182